Easton, WA

4:25 PM PDT on August 31, 2016 (GMT -0700)
Stampede Pass

Weather History for KSMP - February, 2011

Change the Weather History Date:

Wednesday, February 9, 2011

  Actual Average Record
Temperature  
Mean Temperature 24 °F -  
Max Temperature 28 °F 30 °F 43 °F (2005)
Min Temperature 21 °F 23 °F 15 °F (2001)
Degree Days  
Heating Degree Days 40    
Moisture  
Dew Point 23 °F    
Average Humidity 93    
Maximum Humidity 100    
Minimum Humidity 86    
Precipitation  
Precipitation 0.13 in - - ()
Sea Level Pressure  
Sea Level Pressure 30.40 in    
Wind  
Wind Speed 4 mph (WSW)    
Max Wind Speed 8 mph    
Max Gust Speed -    
Visibility 4 miles    
Events Fog    
Averages and records for this station are not official NWS values.
T = Trace of Precipitation, MM = Missing Value Source: NWS Daily Summary

Daily Weather History Graph

Daily Weather History Graph

Search for Another Location

Airport or City:

Trip Planner

Search our weather history database for the weather conditions in past years. The results will help you decide how hot, cold, wet, or windy it might be!

Date:

Astronomy

Feb. 09, 2011 Rise Set
Actual Time 7:20 AM PST 5:19 PM PST
Civil Twilight 6:48 AM PST 5:51 PM PST
Nautical Twilight 6:11 AM PST 6:27 PM PST
Astronomical Twilight 5:36 AM PST 7:03 PM PST
Moon 9:29 AM PST (2/9) No Moon Set
Length of Visible Light 11h 03m
Length of Day
9h 59m
Waxing Crescent, 36% of the Moon is Illuminated
Feb 9
Waxing Crescent
Feb 10
First Quarter
Feb 18
Full
Feb 24
Last Quarter
Mar 4
New

Hourly Weather History & Observations

Time (PST) Temp. Windchill Dew Point Humidity Pressure Visibility Wind Dir Wind Speed Gust Speed Precip Events Conditions
12:32 AM 26.6 °F - 24.8 °F 93% 30.39 in 0.5 mi Calm Calm - N/A Fog Light Freezing Fog
12:36 AM 26.6 °F 22.6 °F 24.8 °F 93% 30.38 in 0.5 mi Variable 3.5 mph - N/A Fog Light Freezing Fog
12:40 AM 24.8 °F 20.5 °F 24.8 °F 100% 30.38 in 0.5 mi Variable 3.5 mph - N/A Fog Light Freezing Fog
12:51 AM 24.8 °F - 24.8 °F 100% 30.39 in 0.2 mi Calm Calm - N/A Fog Light Freezing Fog
12:56 AM 25.0 °F - 24.1 °F 96% 30.50 in 0.5 mi Calm Calm - N/A Fog Light Freezing Fog
1:03 AM 24.8 °F 20.5 °F 24.8 °F 100% 30.39 in 0.5 mi Variable 3.5 mph - N/A Fog Light Freezing Fog
1:11 AM 24.8 °F - 24.8 °F 100% 30.39 in 1.0 mi Calm Calm - N/A   Overcast
1:19 AM 24.8 °F 19.1 °F 24.8 °F 100% 30.38 in 0.5 mi Variable 4.6 mph - N/A Fog Light Freezing Fog
1:53 AM 24.8 °F 19.1 °F 23.0 °F 93% 30.37 in 0.2 mi Variable 4.6 mph - N/A Fog Light Freezing Fog
1:56 AM 25.0 °F 18.1 °F 23.0 °F 92% 30.48 in 0.2 mi Variable 5.8 mph - N/A Fog Light Freezing Fog
2:15 AM 24.8 °F 16.9 °F 23.0 °F 93% 30.37 in 0.8 mi WSW 6.9 mph - N/A   Overcast
2:25 AM 24.8 °F 17.9 °F 23.0 °F 93% 30.37 in 1.0 mi Variable 5.8 mph - N/A   Overcast
2:40 AM 24.8 °F 19.1 °F 21.2 °F 86% 30.38 in 0.8 mi Variable 4.6 mph - N/A   Overcast
2:51 AM 24.1 °F 17.0 °F 21.9 °F 91% 30.49 in 1.8 mi Variable 5.8 mph - N/A   Overcast
2:54 AM 24.8 °F 16.9 °F 21.2 °F 86% 30.38 in 4.0 mi Variable 6.9 mph - N/A   Overcast
3:11 AM 24.8 °F 19.1 °F 21.2 °F 86% 30.38 in 2.5 mi Variable 4.6 mph - N/A   Overcast
3:27 AM 24.8 °F 20.5 °F 21.2 °F 86% 30.37 in 10.0 mi Variable 3.5 mph - N/A   Mostly Cloudy
3:37 AM 24.8 °F 16.9 °F 21.2 °F 86% 30.37 in 10.0 mi West 6.9 mph - N/A   Mostly Cloudy
3:56 AM 23.0 °F 17.0 °F 21.9 °F 96% 30.48 in 1.2 mi Variable 4.6 mph - N/A   Scattered Clouds
4:27 AM 23.0 °F 17.0 °F 21.2 °F 93% 30.38 in 0.2 mi Variable 4.6 mph - N/A Fog Light Freezing Fog
4:34 AM 23.0 °F 17.0 °F 21.2 °F 93% 30.38 in 0.5 mi Variable 4.6 mph - N/A Fog Light Freezing Fog
4:41 AM 23.0 °F 15.8 °F 21.2 °F 93% 30.38 in 0.2 mi Variable 5.8 mph - N/A Fog Light Freezing Fog
4:51 AM 23.0 °F 15.8 °F 21.2 °F 93% 30.38 in 0.5 mi Variable 5.8 mph - N/A Fog Light Freezing Fog
5:01 AM 23.0 °F 17.0 °F 21.2 °F 93% 30.38 in 0.2 mi Variable 4.6 mph - N/A Fog Light Freezing Fog
5:56 AM 24.1 °F 16.0 °F 21.9 °F 91% 30.47 in 0.2 mi Variable 6.9 mph - 0.01 in Fog Light Freezing Fog
6:56 AM 23.0 °F 15.8 °F 21.9 °F 96% 30.48 in 0.2 mi SW 5.8 mph - N/A Fog Light Freezing Fog
7:12 AM 23.0 °F 14.7 °F 21.2 °F 93% 30.36 in 0.5 mi WSW 6.9 mph - N/A Fog Light Freezing Fog
7:29 AM 23.0 °F 15.8 °F 21.2 °F 93% 30.36 in 0.2 mi Variable 5.8 mph - N/A Fog Light Freezing Fog
7:56 AM 21.9 °F 15.7 °F 21.0 °F 96% 30.49 in 0.2 mi Variable 4.6 mph - N/A Fog Light Freezing Fog
8:56 AM 23.0 °F 17.0 °F 21.0 °F 92% 30.51 in 0.5 mi WSW 4.6 mph - 0.01 in Fog Light Freezing Fog
9:04 AM 23.0 °F 17.0 °F 21.2 °F 93% 30.38 in 3.0 mi Variable 4.6 mph - 0.01 in   Mostly Cloudy
9:21 AM 24.8 °F 19.1 °F 21.2 °F 86% 30.38 in 10.0 mi SW 4.6 mph - 0.03 in   Partly Cloudy
9:56 AM 25.0 °F 19.3 °F 23.0 °F 92% 30.51 in 10.0 mi Variable 4.6 mph - 0.06 in   Clear
10:11 AM 24.8 °F 19.1 °F 23.0 °F 93% 30.39 in 10.0 mi SW 4.6 mph - 0.01 in   Partly Cloudy
10:56 AM 25.0 °F 20.7 °F 24.1 °F 96% 30.51 in 10.0 mi Variable 3.5 mph - 0.02 in   Clear
11:56 AM 27.0 °F - 25.0 °F 92% 30.50 in 10.0 mi Calm Calm - 0.01 in   Clear
12:25 PM 28.4 °F 24.6 °F 26.6 °F 93% 30.38 in 10.0 mi Variable 3.5 mph - N/A   Mostly Cloudy
12:37 PM 26.6 °F 21.2 °F 26.6 °F 100% 30.37 in 10.0 mi Variable 4.6 mph - N/A   Mostly Cloudy
12:52 PM 28.4 °F 24.6 °F 26.6 °F 93% 30.37 in 10.0 mi Variable 3.5 mph - 0.01 in   Mostly Cloudy
12:56 PM 27.0 °F 23.0 °F 25.0 °F 92% 30.48 in 10.0 mi Variable 3.5 mph - 0.01 in   Scattered Clouds
1:39 PM 26.6 °F 20.0 °F 24.8 °F 93% 30.36 in 10.0 mi Variable 5.8 mph - N/A   Mostly Cloudy
1:56 PM 27.0 °F 20.5 °F 25.0 °F 92% 30.48 in 10.0 mi West 5.8 mph - N/A   Mostly Cloudy
2:12 PM 28.4 °F 20.4 °F 26.6 °F 93% 30.36 in 10.0 mi West 8.1 mph - N/A   Partly Cloudy
2:56 PM 28.0 °F 20.0 °F 26.1 °F 92% 30.48 in 10.0 mi West 8.1 mph - 0.01 in   Clear
3:56 PM 27.0 °F 20.5 °F 25.0 °F 92% 30.48 in 10.0 mi West 5.8 mph - N/A   Partly Cloudy
4:56 PM 26.1 °F 20.5 °F 24.1 °F 92% 30.47 in 10.0 mi Variable 4.6 mph - N/A   Clear
5:56 PM 25.0 °F 19.3 °F 23.0 °F 92% 30.45 in 10.0 mi West 4.6 mph - N/A   Clear
6:39 PM 24.8 °F 20.5 °F 23.0 °F 93% 30.33 in 6.0 mi West 3.5 mph - N/A   Scattered Clouds
6:46 PM 24.8 °F 20.5 °F 24.8 °F 100% 30.33 in 2.5 mi Variable 3.5 mph - N/A   Mostly Cloudy
6:48 PM 24.8 °F 20.5 °F 24.8 °F 100% 30.33 in 1.2 mi WNW 3.5 mph - N/A   Mostly Cloudy
6:56 PM 25.0 °F - 24.1 °F 96% 30.45 in 0.5 mi Calm Calm - N/A Fog Light Freezing Fog
7:06 PM 24.8 °F 19.1 °F 24.8 °F 100% 30.32 in 0.5 mi Variable 4.6 mph - N/A Fog Light Freezing Fog
7:14 PM 24.8 °F 19.1 °F 24.8 °F 100% 30.32 in 0.2 mi Variable 4.6 mph - N/A Fog Light Freezing Fog
7:56 PM 25.0 °F - 24.1 °F 96% 30.44 in 0.2 mi Calm Calm - N/A Fog Light Freezing Fog
8:56 PM 25.0 °F 18.1 °F 24.1 °F 96% 30.43 in 0.2 mi WSW 5.8 mph - N/A Fog Light Freezing Fog
9:39 PM 24.8 °F 17.9 °F 23.0 °F 93% 30.30 in 1.0 mi WSW 5.8 mph - N/A   Mist
9:56 PM 24.1 °F 16.0 °F 23.0 °F 96% 30.42 in 1.5 mi Variable 6.9 mph - N/A   Overcast
10:19 PM 24.8 °F 17.9 °F 21.2 °F 86% 30.30 in 2.5 mi Variable 5.8 mph - N/A   Mostly Cloudy
10:39 PM 24.8 °F 16.9 °F 21.2 °F 86% 30.30 in 1.8 mi SW 6.9 mph - N/A   Mostly Cloudy
10:44 PM 24.8 °F 16.9 °F 21.2 °F 86% 30.30 in 0.8 mi SW 6.9 mph - N/A   Mist
10:56 PM 24.1 °F 15.2 °F 21.9 °F 91% 30.42 in 0.2 mi SW 8.1 mph - N/A Fog Light Freezing Fog
11:20 PM 24.8 °F 16.1 °F 21.2 °F 86% 30.29 in 0.5 mi SW 8.1 mph - N/A Fog Light Freezing Fog
11:45 PM 23.0 °F 15.8 °F 21.2 °F 93% 30.29 in 1.5 mi Variable 5.8 mph - N/A   Overcast
11:50 PM 23.0 °F 14.7 °F 21.2 °F 93% 30.29 in 3.0 mi WSW 6.9 mph - N/A   Mostly Cloudy
11:56 PM 23.0 °F 15.8 °F 21.0 °F 92% 30.41 in 9.0 mi WSW 5.8 mph - N/A   Mostly Cloudy